Regional Weather Roundup
Issued by NWS

Home | Current Version | Previous Version | Graphics & Text | Print | Product List | Glossary On
Versions: 1 2 3 4 5 6 7 8 9 10 11 12 13 14 15 16 17 18 19 20 21 22 23 24 25 26 27 28 29 30 31 32 33 34 35 36 37 38 39 40 41 42 43 44 45 46 47 48 49 50
104
ASUS45 KTFX 200710
RWRMT
MONTANA REGIONAL WEATHER ROUNDUP
NATIONAL WEATHER SERVICE GREAT FALLS MT
1200 AM MST MON NOV 20 2017

NOTE: "FAIR" INDICATES FEW OR NO CLOUDS BELOW 12000 FEET WITH NO
SIGNIFICANT WEATHER AND/OR OBSTRUCTIONS TO VISIBILITY.

MTZ001>007-043-200800-
WEST OF THE DIVIDE

CITY           SKY/WX    TMP DP  RH WIND       PRES   REMARKS
KALISPELL      CLOUDY    37  26  64 W5        29.65F
MISSOULA       FAIR      27  24  89 CALM      29.74F
BUTTE          FAIR      25  13  60 N3        29.78F
MULLAN PASS    CLOUDY    28  18  66 SW9       29.67S WCI  19
ANACONDA         N/A     43   9  24 S15G22    29.73S
DEER LODGE       N/A     39  18  41 S16G22    29.72F WCI  30
EUREKA           N/A     43  18  36 MISG      29.60F
HAMILTON         N/A     43  12  28 S12       29.74F
LIBBY            N/A     45  19  36 W5        29.61R
RONAN            N/A     42  24  49 S6        29.75F
$$

MTZ008-052>055-200800-
SOUTHWEST MONTANA

CITY           SKY/WX    TMP DP  RH WIND       PRES   REMARKS
BOZEMAN        FAIR      41  18  39 S14       29.74F
DILLON         FAIR      34  16  47 SW9       29.82S WCI  27
W YELLOWSTONE  FAIR      27  16  63 SW13G20   29.97S WCI  16
ENNIS          CLOUDY    36  16  44 S23G32    29.88S WCI  24
$$

MTZ009-010-012-014-046-048-049-054-200800-
EAST SLOPES AND CENTRAL MONTANA

CITY           SKY/WX    TMP DP  RH WIND       PRES   REMARKS
CUT BANK       FAIR      43  14  31 W40G67    29.41F
GREAT FALLS    FAIR      46  11  24 SW33G44   29.49F
MALMSTROM AFB  FAIR      46  12  25 SW13      29.55F
HELENA         FAIR      30  22  72 W5        29.65F
BOWMANS CRNR   FAIR      41  11  30 S24G32    29.51F
CHOTEAU          N/A     52   7  16 SW23G37   29.50R
FAIRFIELD      FAIR      47   7  19 S21G33    29.50F
POWER          FAIR      45  11  25 S28       29.50F
RAYNESFORD     FAIR      49   9  19 W20G39    29.54F
ULM            FAIR      46  12  25 SW17G31   29.55F
$$

MTZ011-013-016-021-045-047-050-051-200800-
NORTH CENTRAL MONTANA

CITY           SKY/WX    TMP DP  RH WIND       PRES   REMARKS
HAVRE          FAIR      43  19  38 SW20      29.43F
LEWISTOWN      FAIR      48  14  25 SW28G41   29.55F
N BAR RANCH    FAIR      50   7  17 SW17G28   29.58F
CHINOOK          N/A     45  16  31 NW3       29.43F
DENTON         MOCLDY    44  16  32 S13G22    29.51F
GEYSER         FAIR      47  12  24 W12G22    29.53F
GRASS RANGE    MOCLDY    49  12  22 SW8       29.52F
STANFORD       MOCLDY    44  13  29 S8        29.54F
WINIFRED       MOCLDY    46  16  30 W17G30    29.52F
$$

MTZ017>020-022>027-061-062-200800-
NORTHEAST MONTANA

CITY           SKY/WX    TMP DP  RH WIND       PRES   REMARKS
GLASGOW        MOCLDY    43  18  36 W8        29.45F
GLENDIVE       FAIR      34  21  59 S7        29.54F WCI  28
JORDAN           N/A     45  19  35 W6        29.51F
SIDNEY         FAIR      32  22  66 S8        29.50F WCI  25
WOLF POINT     FAIR      25  19  78 CALM      29.48F
MALTA          MOCLDY    43  19  39 W9        29.45F
PLENTYWOOD       N/A     30  21  69 CALM      29.44F
POPLAR           N/A     36  19  51 SW8       29.48F WCI  29
$$

MTZ028>42-056>058-200800-
SOUTHCENTRAL AND SOUTHEAST MONTANA

CITY           SKY/WX    TMP DP  RH WIND       PRES   REMARKS
BAKER          FAIR      38  22  52 W8        29.59F
BILLINGS       CLOUDY    45  15  30 SW21      29.64F
LIVINGSTON     FAIR      42  18  37 SW43G61   29.68F
MILES CITY     FAIR      33  25  72 S6        29.59F WCI  28
BIG TIMBER     CLEAR     43  16  33 W23G30    29.68S
FORSYTH          N/A     48  16  27 SW3       29.59S
HARLOWTON      FAIR      38  18  45 NW14      29.62F WCI  30
LAUREL           N/A     45  14  29 SW15      29.68F
ROUNDUP          N/A     45  14  28 SW9       29.57S
$$

REGIONAL REPORTS...DAKOTAS

CITY           SKY/WX    TMP DP  RH WIND       PRES   REMARKS
WILLISTON      FAIR      28  21  75 S5        29.49F
MINOT          FAIR      35  23  61 SW14      29.48F WCI  26
DICKINSON      FAIR      40  21  46 SW18      29.52F
BEACH          FAIR      37  18  44 SW15G22   29.57F WCI  28
CROSBY         MOCLDY    32  23  69 SW17G25   29.43F WCI  21
TIOGA          CLOUDY    32  21  64 SW16      29.48F WCI  21
BISMARCK       FAIR      29  21  72 CALM      29.59F
GRAND FORKS    FAIR      21  19  92 SE9       29.63F WCI  11
FARGO          FAIR      27  22  81 S8        29.67F WCI  19
BUFFALO SD       N/A     35  20  54 W14       29.55F WCI  26
RAPID CITY     FAIR      26  15  63 CALM      29.67F
$$

REGIONAL REPORTS...WYOMING/IDAHO/WASHINGTON

CITY           SKY/WX    TMP DP  RH WIND       PRES   REMARKS
GILLETTE       FAIR      44  10  25 SW23G30   29.69S
SHERIDAN       FAIR      36  21  54 CALM      29.66F
BUFFALO WY     FAIR      47  10  22 W7        29.70F
CODY           FAIR      47   2  15 W15G28    29.79F
YELLOWSTONE LA   N/A     12  10  92 VRB5      30.00F
IDAHO FALLS    FAIR      27  25  92 CALM      30.03S
SALMON         FAIR      35  22  58 N3        29.90F
BOISE          CLOUDY    40  28  62 NW6       29.96R
SPOKANE        LGT RAIN  42  33  70 SW30      29.71F
$$

REGIONAL REPORTS...ALBERTA

CITY           SKY/WX    TMP DP  RH WIND       PRES   REMARKS
EDMONTON       CLOUDY    23  16  74 NW12G20   29.34R WCI  12
CALGARY        MOCLDY    37  21  52 W15G22    29.23S WCI  28
LETHBRIDGE     CLEAR     36  25  64 SW28G33   29.35F WCI  23
MEDICINE HAT   CLOUDY    36  27  69 W12G18    29.40R WCI  27
$$

REGIONAL REPORTS...SASKATCHEWAN

CITY           SKY/WX    TMP DP  RH WIND       PRES   REMARKS
SWIFT CURRENT  CLEAR     41  23  48 W30G37    29.26S
REGINA         CLOUDY    28  23  80 S9        29.31F WCI  20
SASKATOON      CLOUDY    18  16  93 W7        29.21F WCI   8
$$




USA.gov is the U.S. government's official web portal to all federal, state and local government web resources and services.